Showing default

ORBCOMM FM 111, 40089

Orbit data source: Space-Track

ORBCOMM FM 111, 40089 is a payload satellite owned by Orbcomm (US) in LEO that was launched on Mon, 14 Jul 2014 UTC via an FALCON 9 launch vehicle from the Air Force Eastern Test Range (AFETR). Payload-class satellites include a variety of spacecraft equipped with specific instruments for various scientific and technological missions. These include communications satellites like Starlink; space stations such as the ISS; scientific satellites like the Hubble; Earth observation satellites from companies like Planet Labs, Umbra, and HawkEye 360; GPS; miniature CubeSats for education and research; and military/defense satellites.

Loading next visibility...
Identifier
40089, 2014-040D
Orbit
LEO
Last TLE update
14 hours ago
Origin
Manufacturer
SNC Louisville
Mission
Non-operational Commercial Communications
Bus & Motor
SN-100A, Unknown motor
Mass
172 kg wet, 158 kg dry
Launch date (UTC)
2014-07-14 (11 years ago)
Launch vehicle
FALCON 9
Launch site
Air Force Eastern Test Range (AFETR)
Object type
Payload
Rocket body
Debris
Shape & HBR
Box + 1 Pan + 1 Ant, 13 m
Radar Cross Section
2.222 m², Medium (>0.1 m² and < 1m²)

Expand to show TLE details & history

TLE from 14 hours ago
0 ORBCOMM FM 111
1 40089U 14040D   25181.79679777  .00001370  00000-0  17714-3 0  9990
2 40089  47.0034 342.3221 0031162 257.2834 102.4579 14.86350154592250
Epoch: 2025-06-30T19:07Z
TLE epoch observation values (Epoch: 2025-06-30T19:07:23.327Z)
Latitude
-0°
Longitude
136.37345°
Altitude
614.331 km
Speed
7.551 km/s
True Right ascension
22h 49m 17s
True Declination
0° 00' 00"
Sunlit
Object was in full shadow at epoch
Visualization orbit readout
Latitude
-8.8103°
Longitude
125.13185°
Altitude
610.261 km
Speed
7.556 km/s
Apparent Right ascension
23h 51m 33s
Apparent Declination
-65° 06' 05"
Sunlit
Object is in full shadow
Visualization observer readout
Local Sidereal Time
21:13:37
Azimuth
163.507° S
Elevation
-19.439°
Doppler factor
1
Orbital elements
Apogee altitude
632.379 km
Perigee altitude
588.823 km
Semi-major axis
6,988.738 km
Eccentricity
0.00312
Inclination
47.0034°
RAAN
342.3221°
Arg. of periapsis
257.2834°
True anomaly
Unknown
Mean anomaly
102.4579°
Eccentric anomaly
Unknown
Mean motion
3.71488 °/min
Orbital period
96.91 mins
BSTAR
0.00017714
Loading maneuver chart data...
Loading SW <> Apogee altitude chart data...
Loading historical data...
Loading historical data...
Loading historical data...
Loading historical data...
Loading historical data...
Loading historical data...
Loading historical data...

ORBCOMM FM 111 Visibility forecast

Observer location: undefined°, undefined°

Span
Click to sort rows by Start time (UTC) header in descending order
Start Az.
Max El. time (UTC)
Max El. Az.
Max El.
End time (UTC)
End Az.
7 mins2025-07-01 13:02:18.499Z194.614° SSW2025-07-01 13:05:18.499Z143.319° SSE26.926°2025-07-01 13:09:18.499Z79.217° E
7 mins2025-07-01 14:43:18.499Z256.164° W2025-07-01 14:46:18.499Z302.522° NW41.29°2025-07-01 14:50:18.499Z56.483° ENE
6 mins2025-07-01 16:26:18.499Z303.691° NW2025-07-01 16:28:18.499Z342.3° N28.803°2025-07-01 16:32:18.499Z57.176° ENE
7 mins2025-07-01 18:08:18.499Z313.71° NW2025-07-01 18:11:18.499Z28.512° NE34.109°2025-07-01 18:15:18.499Z87.862° E
7 mins2025-07-01 19:49:18.499Z290.253° WNW2025-07-01 19:52:18.499Z236.139° WSW40.953°2025-07-01 19:56:18.499Z135.259° SSE
|